Location: Gollag?dem
(16.8053°N, 80.8024°E)
Time: 18:19:08
(UTC+00:00)

CENTAUR R/B - Pass Details

Date: 13 August 2020
Orbit: 754 x 1434 km, 63.5° (Epoch: 17 September)

Event Time Altitude Azimuth Distance (km) Brightness Sun altitude
Rises 15:08:41 0° 224° (SW) 3,221 5.4 -28.9°
Reaches altitude 10° 15:11:09 10° 233° (SW) 2,334 4.8 -29.4°
Maximum altitude 15:16:00 36° 299° (WNW) 1,300 3.6 -30.4°
Drops below altitude 10° 15:21:28 10° 5° (N) 2,623 5.0 -31.6°
Sets 15:24:24 0° 14° (NNE) 3,677 5.7 -32.2°
